Location: Mainz-Finthen
(49.9906°N, 8.1713°E)
Time: 17:21:29
(UTC+00:00)

CUTE-I - Visible Passes

Search period start: 03 December 2021 00:00
Search period end: 13 December 2021 00:00
Orbit: 811 x 824 km, 98.7° (Epoch: 03 December)

Date Brightness Start Highest point End Pass type
(mag) Time Alt. Az. Time Alt. Az. Time Alt. Az.
03 Dec ? 04:35:07 10° NE 04:38:42 18° E 04:42:16 10° SE visible
03 Dec ? 06:13:58 10° NNE 06:19:22 79° WNW 06:24:45 10° SSW visible
03 Dec ? 16:00:45 10° SE 16:05:46 44° ENE 16:10:50 10° N visible
03 Dec ? 17:41:11 10° SSW 17:45:56 32° W 17:50:44 10° NNW visible
04 Dec ? 04:14:59 10° ENE 04:16:48 12° E 04:18:37 10° ESE visible
04 Dec ? 05:52:24 10° NNE 05:57:48 72° ESE 06:03:10 10° S visible
04 Dec ? 17:19:05 10° S 17:24:13 48° W 17:29:26 10° NNW visible
05 Dec ? 05:30:56 10° NNE 05:36:10 49° E 05:41:21 10° S visible
05 Dec ? 16:57:15 10° S 17:02:35 71° WSW 17:07:58 10° NNW visible
05 Dec ? 18:41:59 10° WSW 18:43:36 11° W 18:45:14 10° WNW visible
06 Dec ? 05:09:36 10° NNE 05:14:28 33° E 05:19:17 10° SSE visible
06 Dec ? 16:35:40 10° SSE 16:41:00 80° ENE 16:46:24 10° NNW visible
06 Dec ? 18:18:14 10° SW 18:21:42 17° W 18:25:12 10° NW visible
07 Dec ? 04:48:28 10° NE 04:52:41 23° E 04:56:52 10° SE visible
07 Dec ? 06:27:49 10° N 06:33:09 63° WNW 06:38:26 10° SSW visible
07 Dec ? 16:14:18 10° SE 16:19:30 55° ENE 16:24:45 10° N visible
07 Dec ? 17:55:29 10° SSW 17:59:51 25° W 18:04:18 10° NW visible
08 Dec ? 04:27:43 10° NE 04:30:50 15° E 04:33:56 10° ESE visible
08 Dec ? 06:06:11 10° NNE 06:11:37 90° WSW 06:17:00 10° SSW visible
08 Dec ? 15:53:09 10° SE 15:58:04 39° ENE 16:03:01 10° N visible
08 Dec ? 17:33:11 10° SSW 17:38:07 37° W 17:43:06 10° NNW visible
09 Dec ? 05:44:40 10° NNE 05:50:01 63° ESE 05:55:21 10° S visible
09 Dec ? 17:11:11 10° S 17:16:26 55° W 17:21:43 10° NNW visible
10 Dec ? 05:23:14 10° NNE 05:28:22 42° E 05:33:26 10° S visible
10 Dec ? 16:49:27 10° SSE 16:54:48 81° WSW 17:00:13 10° NNW visible
10 Dec ? 18:33:11 10° WSW 18:35:42 13° W 18:38:14 10° WNW visible
11 Dec ? 05:01:58 10° NE 05:06:38 29° E 05:11:15 10° SSE visible
11 Dec ? 16:27:56 10° SSE 16:33:15 71° ENE 16:38:38 10° N visible
11 Dec ? 18:09:57 10° SW 18:13:49 20° W 18:17:43 10° NW visible
12 Dec ? 04:40:56 10° NE 04:44:50 20° E 04:48:41 10° SE visible
12 Dec ? 06:20:01 10° NNE 06:25:24 72° WNW 06:30:45 10° SSW visible
12 Dec ? 16:06:39 10° SE 16:11:46 49° ENE 16:16:56 10° N visible
12 Dec ? 17:47:23 10° SSW 17:52:01 29° W 17:56:41 10° NNW visible
